Terminal Aerodrome Forecast
Issued by NWS Quad Cities IA IL

Home | Current Version | Previous Version | Text Only | Print | Product List | Glossary On
Versions: 1 2 3 4 5 6 7 8 9 10 11 12 13 14 15 16 17 18 19 20 21 22 23 24 25 26 27 28 29 30 31 32 33 34 35 36 37 38 39 40 41 42 43 44 45 46 47
000
FTUS43 KDVN 301120
TAFMLI
TAF
KMLI 301120Z 3012/3112 08018G25KT 6SM -RA BR OVC010
     FM301400 05011G17KT 5SM BR VCSH OVC009
     FM302000 01014KT P6SM VCSH OVC010
     FM310200 35013KT 5SM BR OVC010=

USA.gov is the U.S. government's official web portal to all federal, state and local government web resources and services.